[[{"header":{"parameterUnit":"m.s-1","parameterCategory":1,"la1":30.2991,"la2":30.254,"lo1":-89.0895,"lo2":-89.0444,"dy":0.0017,"dx":0.0017,"nx":28,"ny":28,"refTime":"2024-11-28T03:00:00:Z","depth":0,"parameterNumber":2,"parameterNumberName":"U-component_of_WINDS"},"data":[0,0,0,0,0,0,0,0,0,0,0,0,0,0,0,0,0,0,0,0,0,0,0,0,0,0,0,0,0,0,0,0,0,0,0,0,0,0,0,0,0,0,0,0,0,0,0,0,0,0,0,0,0,0,0,0,0,0,-1.0841,-1.0842,0,-1.0871,-1.0871,-1.0872,-1.0833,-1.0832,-1.0831,-1.0829,-1.0861,-1.0863,-1.0865,0,0,0,0,0,0,0,0,0,0,0,0,0,-1.0752,-1.0754,-1.0841,-1.0842,-1.0842,-1.0871,-1.0871,-1.0872,-1.0834,-1.0832,-1.083,-1.0829,-1.086,-1.0862,-1.0865,0,0,0,0,0,0,0,0,0,0,0,0,0,-1.0787,-1.0754,-1.0841,-1.0827,-1.0826,-1.0871,-1.0871,-1.0872,-1.0834,-1.0832,-1.083,-1.0828,-1.0859,-1.0862,-1.0865,-1.0927,0,0,-1.0875,-1.0876,0,0,0,0,0,0,0,0,-1.0785,-1.079,-1.0828,-1.0828,-1.0827,-1.0846,-1.0851,-1.089,-1.0835,-1.0831,-1.0829,-1.0827,-1.0858,-1.0861,-1.0871,-1.0928,-1.0929,-1.0875,-1.0877,-1.0879,-1.0879,0,0,0,0,0,0,0,-1.0783,-1.0789,-1.0853,-1.0829,-1.0828,-1.0818,-1.0821,-1.0858,-1.0856,-1.0831,-1.0828,-1.0832,-1.0857,-1.0868,-1.0871,-1.093,-1.0875,-1.0878,-1.088,-1.0881,-1.1038,-1.104,0,0,0,0,0,0,-1.0782,-1.0787,-1.0852,-1.0854,-1.08,-1.0822,-1.0825,-1.0842,-1.0855,-1.0855,-1.0834,-1.083,-1.0863,-1.0868,-1.0872,-1.0945,-1.0879,-1.0882,-1.0883,-1.1036,-1.1039,-1.1041,0,0,0,0,0,0,-1.078,-1.0788,-1.0851,-1.082,-1.0827,-1.0826,-1.0845,-1.0844,-1.0855,-1.0857,-1.0857,-1.0846,-1.0862,-1.0868,-1.0913,-1.0946,-1.0883,-1.0886,-1.1033,-1.1037,-1.104,-1.1091,0,0,0,0,0,0,-1.0778,-1.0788,-1.0811,-1.0821,-1.0829,-1.0892,-1.0847,-1.0846,-1.0861,-1.0856,-1.0869,-1.0869,-1.0861,-1.0909,-1.0916,-1.0949,-1.0888,-1.103,-1.1035,-1.1039,-1.1087,-1.1096,-1.1104,0,0,0,0,0,-1.0775,-1.0825,-1.0813,-1.0821,-1.0858,-1.0894,-1.0899,-1.0888,-1.0863,-1.0887,-1.0888,-1.0868,-1.094,-1.0914,-1.0922,-1.0956,-1.1028,-1.1034,-1.1039,-1.1083,-1.1094,-1.1104,0,0,0,0,0,0,-1.082,-1.0826,-1.0812,-1.0867,-1.088,-1.0887,-1.0917,-1.0901,-1.0922,-1.0917,-1.0903,-1.0906,-1.0955,-1.096,-1.093,-1.1016,-1.098,-1.0987,-1.1011,-1.1022,-1.103,-1.1029,-1.0891,0,0,0,0,0,-1.0836,-1.0864,-1.0868,-1.0916,-1.0923,-1.0919,-1.0934,-1.0925,-1.0938,-1.0943,-1.0948,-1.0962,-1.0987,-1.1005,-1.1028,-1.1087,-1.1089,-1.1114,-1.1122,-1.113,-1.1136,-1.1167,-1.1178,-1.1058,-1.1058,-1.1058,0,0,-1.087,-1.0877,-1.0896,-1.0925,-1.0934,-1.0964,-1.0924,-1.0957,-1.0979,-1.0948,-1.0992,-1.0995,-1.1009,-1.1062,-1.1085,-1.1067,-1.117,-1.1136,-1.1142,-1.1145,-1.1174,-1.1185,-1.1195,-1.1061,-1.1061,-1.106,0,0,-1.0948,-1.0956,-1.0996,-1.1006,-1.102,-1.1016,-1.1026,-1.1035,-1.1037,-1.1079,-1.1057,-1.1082,-1.1127,-1.1138,-1.1149,-1.1229,-1.1212,-1.1237,-1.1283,-1.1313,-1.1323,-1.1331,-1.136,-1.137,-1.1244,-1.1244,-1.1244,0,-1.0989,-1.1033,-1.1019,-1.1054,-1.1067,-1.104,-1.1081,-1.1091,-1.1112,-1.1122,-1.1102,-1.1157,-1.1164,-1.1218,-1.1238,-1.1248,-1.1258,-1.1237,-1.1322,-1.1331,-1.1338,-1.1366,-1.1376,-1.1247,-1.1246,-1.1246,-1.1246,0,-1.1082,-1.1113,-1.1144,-1.1165,-1.1181,-1.1219,-1.1211,-1.123,-1.1218,-1.1217,-1.1261,-1.1269,-1.1293,-1.1305,-1.1295,-1.1358,-1.1346,-1.1324,-1.1289,-1.1353,-1.1379,-1.1389,-1.1251,-1.125,-1.1249,-1.1248,0,0,-1.1191,-1.1203,-1.1215,-1.1223,-1.1236,-1.1259,-1.1295,-1.1319,-1.1335,-1.135,-1.138,-1.1417,-1.1397,-1.1409,-1.14,-1.1426,-1.1489,-1.1401,-1.1401,-1.1418,-1.1559,-1.1576,-1.1589,-1.1477,-1.1479,-1.148,-1.1558,0,-1.1269,-1.1332,-1.132,-1.1381,-1.1409,-1.1382,-1.1414,-1.1425,-1.1424,-1.1447,-1.1446,-1.1473,-1.1444,-1.1451,-1.1476,-1.1476,-1.1518,-1.147,-1.1505,-1.1506,-1.1504,-1.1602,-1.1621,-1.1694,-1.1568,-1.1569,-1.1571,0,-1.1369,-1.1387,-1.1451,-1.1458,-1.1469,-1.1498,-1.1518,-1.1541,-1.1552,-1.155,-1.1563,-1.1548,-1.1584,-1.1546,-1.1595,-1.1563,-1.1576,-1.1578,-1.1581,-1.1585,-1.1543,-1.1609,-1.1717,-1.1728,-1.1586,-1.1585,-1.1584,0,-1.1443,-1.1483,-1.1526,-1.1535,-1.1544,-1.1565,-1.1569,-1.1579,-1.1593,-1.1611,-1.162,-1.1641,-1.1654,-1.167,-1.1661,-1.1635,-1.1711,-1.1673,-1.1711,-1.1711,-1.1729,-1.1729,-1.1841,-1.1736,-1.1736,-1.1736,-1.1735,0,-1.1533,-1.1573,-1.156,-1.1587,-1.163,-1.1616,-1.166,-1.1661,-1.1669,-1.1696,-1.1674,-1.1699,-1.1685,-1.1709,-1.1702,-1.1743,-1.1748,-1.1747,-1.1745,-1.175,-1.1751,-1.176,-1.1755,-1.1739,-1.1738,-1.1737,-1.1737,0,-1.1623,-1.1616,-1.1662,-1.1666,-1.1668,-1.17,-1.1704,-1.1729,-1.1726,-1.1759,-1.1766,-1.1761,-1.1788,-1.178,-1.1809,-1.1804,-1.1857,-1.1848,-1.1853,-1.1852,-1.189,-1.1886,-1.2013,-1.2029,-1.1913,-1.1914,-1.1915,0,-1.1682,-1.1712,-1.1719,-1.1735,-1.1741,-1.1767,-1.1782,-1.1768,-1.1784,-1.1799,-1.1822,-1.1846,-1.1866,-1.191,-1.1909,-1.1931,-1.1922,-1.1965,-1.1926,-1.1929,-1.1924,-1.1923,-1.1926,-1.1974,-1.1975,-1.1976,-1.1977,0,-1.1786,-1.178,-1.1802,-1.1822,-1.184,-1.1856,-1.1869,-1.1883,-1.187,-1.1889,-1.1916,-1.1931,-1.196,-1.1985,-1.2005,-1.2009,-1.1992,-1.1989,-1.1999,-1.2005,-1.2007,-1.2007,-1.1876,-1.1987,-1.1986,-1.1985,-1.1985,-1.1984,-1.1862,-1.1888,-1.1897,-1.1922,-1.193,-1.1943,-1.1966,-1.1965,-1.1987,-1.201,-1.2,-1.2031,-1.2041,-1.2065,-1.2072,-1.2096,-1.208,-1.2094,-1.2098,-1.2102,-1.2107,-1.2002,-1.2099,-1.2099,-1.2099,-1.2099,-1.2098,0,-1.1966,-1.197,-1.1993,-1.2012,-1.2031,-1.2011,-1.2024,-1.2042,-1.207,-1.208,-1.2099,-1.2129,-1.2153,-1.2153,-1.2175,-1.2194,-1.2186,-1.22,-1.2199,-1.2201,-1.212,-1.211,-1.2206,-1.2206,-1.2206,-1.2206,-1.2206,-1.2206,-1.2022,-1.2064,-1.2059,-1.2105,-1.2108,-1.2139,-1.2148,-1.2159,-1.2167,-1.2202,-1.2222,-1.2221,-1.2227,-1.2249,-1.227,-1.2269,-1.2278,-1.2296,-1.2292,-1.2217,-1.2207,-1.2196,-1.2187,-1.2298,-1.2298,-1.2371,-1.2372,-1.2372]},{"header":{"parameterUnit":"m.s-1","parameterCategory":1,"la1":30.2991,"la2":30.254,"lo1":-89.0895,"lo2":-89.0444,"dy":0.0017,"dx":0.0017,"nx":28,"ny":28,"refTime":"2024-11-28T03:00:00:Z","depth":0,"parameterNumber":3,"parameterNumberName":"V-component_of_WINDS"},"data":[0,0,0,0,0,0,0,0,0,0,0,0,0,0,0,0,0,0,0,0,0,0,0,0,0,0,0,0,0,0,0,0,0,0,0,0,0,0,0,0,0,0,0,0,0,0,0,0,0,0,0,0,0,0,0,0,0,0,-8.6897,-8.6899,0,-8.7033,-8.7035,-8.7036,-8.6939,-8.6934,-8.693,-8.6926,-8.7058,-8.7065,-8.7073,0,0,0,0,0,0,0,0,0,0,0,0,0,-8.6546,-8.6553,-8.6897,-8.6899,-8.6901,-8.7033,-8.7035,-8.7037,-8.6939,-8.6934,-8.6929,-8.6924,-8.7056,-8.7064,-8.7073,0,0,0,0,0,0,0,0,0,0,0,0,0,-8.6692,-8.6555,-8.6897,-8.6868,-8.6867,-8.7033,-8.7035,-8.7037,-8.694,-8.6934,-8.6927,-8.6921,-8.7053,-8.7064,-8.7075,-8.7274,0,0,-8.7109,-8.7114,0,0,0,0,0,0,0,0,-8.6684,-8.6705,-8.6871,-8.687,-8.6869,-8.6962,-8.6959,-8.7116,-8.6942,-8.6912,-8.6926,-8.6918,-8.7031,-8.7044,-8.7083,-8.728,-8.7286,-8.711,-8.7117,-8.7122,-8.7125,0,0,0,0,0,0,0,-8.6674,-8.6698,-8.6951,-8.6873,-8.6872,-8.6846,-8.686,-8.6989,-8.7006,-8.6914,-8.6908,-8.6926,-8.7029,-8.7072,-8.7085,-8.7288,-8.711,-8.712,-8.7127,-8.7131,-8.7654,-8.7661,0,0,0,0,0,0,-8.6667,-8.6691,-8.6946,-8.6955,-8.6759,-8.6858,-8.6873,-8.6939,-8.7004,-8.7008,-8.6931,-8.692,-8.7056,-8.7072,-8.709,-8.7327,-8.7122,-8.7132,-8.7139,-8.7647,-8.7656,-8.7663,0,0,0,0,0,0,-8.666,-8.6691,-8.6941,-8.6821,-8.6851,-8.6871,-8.6946,-8.6945,-8.6988,-8.7017,-8.7019,-8.6972,-8.7052,-8.7074,-8.7229,-8.733,-8.7137,-8.7148,-8.7639,-8.765,-8.7659,-8.7804,0,0,0,0,0,0,-8.665,-8.6689,-8.6767,-8.6824,-8.6858,-8.7081,-8.6952,-8.6952,-8.7009,-8.6996,-8.7056,-8.706,-8.7048,-8.7213,-8.724,-8.7343,-8.7157,-8.763,-8.7643,-8.7656,-8.779,-8.7818,-8.7842,0,0,0,0,0,-8.6638,-8.68,-8.6771,-8.6802,-8.6955,-8.7087,-8.7106,-8.7092,-8.7017,-8.7094,-8.7113,-8.7058,-8.7315,-8.723,-8.726,-8.7367,-8.7623,-8.764,-8.7655,-8.7779,-8.7813,-8.7842,0,0,0,0,0,0,-8.6752,-8.6807,-8.6775,-8.6961,-8.7021,-8.707,-8.7167,-8.7128,-8.7208,-8.7193,-8.7169,-8.7183,-8.7347,-8.7372,-8.7276,-8.7563,-8.7457,-8.748,-8.7541,-8.7573,-8.7599,-8.7589,-8.7166,0,0,0,0,0,-8.6799,-8.6904,-8.6945,-8.7105,-8.7136,-8.7147,-8.7203,-8.7188,-8.7247,-8.7271,-8.73,-8.7358,-8.7451,-8.7514,-8.7601,-8.7793,-8.7804,-8.7882,-8.7908,-8.7929,-8.7949,-8.8052,-8.8087,-8.7716,-8.7716,-8.7715,0,0,-8.6896,-8.694,-8.7006,-8.7129,-8.7173,-8.7279,-8.7168,-8.7286,-8.7364,-8.7287,-8.7437,-8.7461,-8.7523,-8.7698,-8.7777,-8.7724,-8.8054,-8.7949,-8.7966,-8.7975,-8.8072,-8.8107,-8.8139,-8.7727,-8.7725,-8.7723,0,0,-8.7129,-8.7173,-8.7311,-8.7358,-8.7427,-8.7433,-8.7466,-8.7522,-8.7536,-8.7686,-8.7631,-8.7722,-8.7884,-8.7932,-8.7977,-8.8228,-8.818,-8.8257,-8.8393,-8.8494,-8.8523,-8.8549,-8.8638,-8.8671,-8.8276,-8.8277,-8.8277,0,-8.7241,-8.7402,-8.7386,-8.7509,-8.7563,-8.7502,-8.764,-8.7686,-8.7779,-8.7817,-8.7758,-8.7961,-8.7998,-8.8183,-8.8245,-8.8283,-8.8319,-8.825,-8.852,-8.8546,-8.857,-8.8655,-8.8689,-8.8286,-8.8285,-8.8284,-8.8283,0,-8.7536,-8.7648,-8.7751,-8.7846,-8.7912,-8.8042,-8.8044,-8.8113,-8.8091,-8.8103,-8.8256,-8.8299,-8.8395,-8.8437,-8.8416,-8.862,-8.8585,-8.8524,-8.8417,-8.8615,-8.8694,-8.8726,-8.8299,-8.8295,-8.8293,-8.829,0,0,-8.7843,-8.7929,-8.7967,-8.801,-8.8081,-8.8167,-8.8293,-8.8389,-8.8449,-8.8514,-8.8619,-8.8758,-8.8702,-8.8753,-8.8737,-8.8825,-8.9022,-8.8753,-8.8754,-8.8801,-8.9248,-8.9294,-8.9333,-8.8991,-8.8997,-8.9002,-8.9243,0,-8.808,-8.8304,-8.8293,-8.8501,-8.8604,-8.8547,-8.8657,-8.8712,-8.8726,-8.8814,-8.8828,-8.8928,-8.8846,-8.8877,-8.8962,-8.898,-8.9111,-8.8962,-8.9086,-8.9091,-8.9073,-8.9374,-8.9423,-8.9649,-8.9274,-8.9279,-8.9283,0,-8.8386,-8.8466,-8.8685,-8.8743,-8.8785,-8.8885,-8.8972,-8.9057,-8.9118,-8.9122,-8.918,-8.9149,-8.9275,-8.9165,-8.9337,-8.9236,-8.9286,-8.9302,-8.9311,-8.9321,-8.9199,-8.9393,-8.9721,-8.9755,-8.9332,-8.9328,-8.9324,0,-8.8589,-8.875,-8.8903,-8.8941,-8.9011,-8.9083,-8.9115,-8.9169,-8.9228,-8.9303,-8.9341,-8.9429,-8.9477,-8.9545,-8.9538,-8.9459,-8.9713,-8.9602,-8.9718,-8.9719,-8.9774,-8.9771,-9.0114,-8.9806,-8.9806,-8.9805,-8.9804,0,-8.8854,-8.899,-8.8995,-8.9089,-8.924,-8.9226,-8.9374,-8.9398,-8.9447,-8.9543,-8.9498,-8.9588,-8.9573,-8.9663,-8.9658,-8.9801,-8.9823,-8.9828,-8.9825,-8.9833,-8.9832,-8.9865,-8.9849,-8.9814,-8.9812,-8.981,-8.9809,0,-8.9106,-8.9115,-8.9277,-8.9332,-8.9348,-8.9457,-8.9502,-8.959,-8.9601,-8.9723,-8.975,-8.9766,-8.987,-8.987,-8.9987,-8.9983,-9.0159,-9.0138,-9.014,-9.0135,-9.0252,-9.0241,-9.0628,-9.0678,-9.0338,-9.0341,-9.0344,0,-8.9275,-8.9379,-8.9446,-8.9508,-8.9546,-8.9646,-8.9707,-8.9696,-8.976,-8.9837,-8.9915,-9.0015,-9.0095,-9.0262,-9.0283,-9.0372,-9.0353,-9.0482,-9.0366,-9.037,-9.0355,-9.0349,-9.0359,-9.0505,-9.0509,-9.0512,-9.0515,0,-8.9574,-8.9574,-8.9664,-8.9757,-8.9831,-8.9902,-8.9968,-9.0021,-9.0017,-9.0091,-9.0198,-9.026,-9.0381,-9.048,-9.0567,-9.0596,-9.0555,-9.0551,-9.0583,-9.0592,-9.0589,-9.0592,-9.0202,-9.0542,-9.054,-9.0538,-9.0536,-9.0535,-8.979,-8.988,-8.9942,-9.0043,-9.0093,-9.0155,-9.0241,-9.0264,-9.0354,-9.0453,-9.044,-9.056,-9.0616,-9.0728,-9.0766,-9.0857,-9.0812,-9.0857,-9.0869,-9.0881,-9.0894,-9.0575,-9.0873,-9.0872,-9.0871,-9.0871,-9.087,0,-9.0087,-9.0124,-9.0218,-9.0313,-9.0393,-9.035,-9.0421,-9.049,-9.0596,-9.0654,-9.0734,-9.0856,-9.0952,-9.0981,-9.1074,-9.1141,-9.1124,-9.1166,-9.116,-9.1168,-9.0929,-9.0893,-9.1178,-9.1178,-9.1178,-9.1178,-9.1177,-9.1177,-9.0251,-9.0402,-9.0409,-9.0582,-9.0617,-9.0736,-9.078,-9.0837,-9.0884,-9.1024,-9.1104,-9.1123,-9.1169,-9.1265,-9.135,-9.1356,-9.1392,-9.1441,-9.1439,-9.1216,-9.1185,-9.1155,-9.1121,-9.1449,-9.145,-9.1671,-9.1673,-9.1674]}]]